星链-32283 (STARLINK-32283)

导读

STARLINK-32283是美国于2024年12月23日发射的星链卫星,隶属于SpaceX公司的星链星座项目。星链项目旨在构建全球卫星互联网星座,为全球偏远地区等提供高速互联网接入服务,该卫星的发射进一步扩充了星链星座的规模,推进了全球卫星互联网覆盖网络的建设进程。

基本信息
目录编号:
62425
目录名称:
STARLINK-32283
国际标识:
2024-249S
轨道中心:
EARTH
卫星名称:
星链-32283
卫星全名:
星链-32283 (STARLINK-32283)
卫星状态:
在轨 (已飞行621 天)
发射日期:
2024-12-23 UTC
国别 :
美国 (US)
星等 :
--
轨道信息
数据来源 国际轨道数据
星历时间: 2026-09-04T20:20:34+0800
20小时前
查看轨道信息
半长轴: 6861.141km
偏心率: 0.0001795
轨道倾角: 43.000°
近地点辐角 284.669°
升交点赤经 20.604°
平近点角 75.396°
近地点: 481.772km
远地点: 484.236km
周期: 94.266分钟
每日圈数: 15.275953
详细信息
固有亮度:
5
最大亮度:
2.5
卫星平台:
Starlink V1.0
覆盖范围:
全球
运营商:
太空探索技术公司
运营商所在国:
美国
制造商(研发单位):
太空探索技术公司
制造商所在国:
美国
使用方式:
暂无
卫星简介
Starlink 计划是 SpaceX 推出的全球卫星互联网项目,通过发射低轨道卫星,为全球尤其是偏远地区提供高速、低延迟的互联网服务。自 2019 年起,Starlink 已部署数千颗卫星,旨在缩小全球数字鸿沟,推动互联网普及。该项目还为军事、航空等行业提供通信支持,带来广泛经济效益。
2D轨道图
3D轨道图
轨道高度分析图
轨道倾角分析图
轨道综合分析图
查看轨道综合分析图
交会数据列表
事件ID 空间交会对象 最接近时刻(TCA) 交会距离 交会风险概率(CRP) 交会风险指数(CRI) 操作
CDM_260906-133205-603406-242522
2026-09-06T
13:32:54+0000
0.343 km
远距离
3.056758E-4 高风险 0.85
CDM_260907-011905-603406-242522
2026-09-07T
01:19:03+0000
1.069 km
极远距离
1.353277E-5 中风险 0.58
CDM_260907-184205-709306-242521
2026-09-07T
18:42:07+0000
1.909 km
极远距离
2.51048E-6 低风险 0.43
CDM_260907-170705-764606-242521
2026-09-07T
17:07:20+0000
2.143 km
极远距离
1.876832E-6 低风险 0.4
CDM_260907-153305-764606-242521
2026-09-07T
15:33:11+0000
2.172 km
极远距离
1.819918E-6 低风险 0.4
CDM_260907-201605-709306-242521
2026-09-07T
20:16:16+0000
2.183 km
极远距离
1.812808E-6 低风险 0.4
CDM_260906-150705-603406-242521
2026-09-06T
15:07:03+0000
2.222 km
极远距离
1.493892E-6 低风险 0.38
CDM_260906-115805-603406-242522
2026-09-06T
11:58:45+0000
2.392 km
极远距离
1.290737E-6 低风险 0.37
CDM_260829-112504-343106-242521
2026-08-29T
11:25:36+0000
2.380 km
极远距离
1.248601E-6 低风险 0.37
CDM_260907-025305-603406-242521
2026-09-07T
02:53:12+0000
2.552 km
极远距离
1.153127E-6 低风险 0.36